| time (UTC) | temp F | wind direction | speed knots | gust knots | rain 1hr in | rain 24hr in | rain mn in | humidity % | barometer mb |
| 20260905194425 | 56 | 285 | 0.9 | 3.5 | 0.00 | 0.00 | 0.12 | 100 | 1014.8 |
| 20260905192922 | 56 | 305 | 0.9 | 2.6 | 0.00 | 0.00 | 0.12 | 100 | 1014.8 |
| 20260905191419 | 56 | 97 | 0.9 | 1.7 | 0.00 | 0.00 | 0.12 | 100 | 1014.6 |
| 20260905185915 | 56 | 64 | 1.7 | 5.2 | 0.00 | 0.00 | 0.12 | 100 | 1014.7 |
| 20260905184412 | 56 | 356 | 2.6 | 7.0 | 0.00 | 0.00 | 0.11 | 100 | 1015.0 |
| 20260905182909 | 57 | 63 | 6.1 | 6.1 | 0.00 | 0.00 | 0.11 | 100 | 1014.8 |
| 20260905181406 | 58 | 284 | 0.9 | 2.6 | 0.00 | 0.00 | 0.11 | 100 | 1014.3 |
| 20260905175902 | 57 | 268 | 1.7 | 3.5 | 0.00 | 0.00 | 0.11 | 100 | 1014.4 |
| 20260905174359 | 57 | 94 | 1.7 | 2.6 | 0.00 | 0.00 | 0.11 | 100 | 1014.5 |
| 20260905172856 | 58 | 100 | 2.6 | 7.0 | 0.00 | 0.00 | 0.09 | 100 | 1014.4 |
| 20260905171352 | 58 | 298 | 0.0 | 1.7 | 0.00 | 0.00 | 0.09 | 100 | 1014.0 |
| 20260905165849 | 58 | 283 | 0.0 | 1.7 | 0.00 | 0.00 | 0.09 | 100 | 1013.8 |
| 20260905164346 | 58 | 270 | 1.7 | 2.6 | 0.00 | 0.00 | 0.09 | 100 | 1013.9 |
| 20260905162843 | 58 | 292 | 0.0 | 1.7 | 0.00 | 0.00 | 0.09 | 100 | 1014.0 |
| 20260905161339 | 62 | 46 | 4.3 | 7.0 | 0.00 | 0.00 | 0.06 | 100 | 1014.3 |
| 20260905155836 | 63 | 315 | 0.0 | 3.5 | 0.00 | 0.00 | 0.01 | 75 | 1013.1 |
| 20260905154333 | 64 | 281 | 0.9 | 2.6 | 0.00 | 0.00 | 0.01 | 74 | 1013.1 |
| 20260905152829 | 64 | 306 | 0.0 | 1.7 | 0.00 | 0.00 | 0.01 | 76 | 1013.3 |
| 20260905151326 | 64 | 315 | 0.0 | 1.7 | 0.00 | 0.00 | 0.01 | 77 | 1013.2 |
| 20260905145823 | 63 | 72 | 1.7 | 3.5 | 0.00 | 0.00 | 0.01 | 79 | 1013.2 |
| 20260905144320 | 62 | 339 | 0.0 | 3.5 | 0.00 | 0.00 | 0.01 | 79 | 1013.1 |
| 20260905142816 | 63 | 52 | 0.0 | 5.2 | 0.00 | 0.00 | 0.01 | 77 | 1013.1 |
| 20260905141313 | 67 | 94 | 3.5 | 7.8 | 0.00 | 0.00 | 0.00 | 60 | 1013.1 |
| 20260905135810 | 68 | 83 | 2.6 | 9.6 | 0.00 | 0.00 | 0.00 | 52 | 1012.7 |
| 20260905134306 | 70 | 81 | 7.8 | 11.3 | 0.00 | 0.00 | 0.00 | 51 | 1012.8 |
| 20260905132803 | 71 | 302 | 2.6 | 5.2 | 0.00 | 0.00 | 0.00 | 50 | 1012.5 |
| 20260905131300 | 72 | 82 | 2.6 | 7.0 | 0.00 | 0.00 | 0.00 | 49 | 1012.6 |
| 20260905125757 | 72 | 256 | 3.5 | 9.6 | 0.00 | 0.00 | 0.00 | 48 | 1012.8 |
| 20260905124253 | 70 | 270 | 1.7 | 7.0 | 0.00 | 0.00 | 0.00 | 51 | 1012.7 |
| 20260905122750 | 68 | 63 | 7.0 | 8.7 | 0.00 | 0.00 | 0.00 | 52 | 1012.8 |
| 20260905121247 | 67 | 45 | 0.0 | 7.0 | 0.00 | 0.00 | 0.00 | 55 | 1013.0 |
| 20260905115743 | 67 | 102 | 1.7 | 6.1 | 0.00 | 0.00 | 0.00 | 55 | 1012.9 |
| 20260905114240 | 67 | 83 | 5.2 | 7.0 | 0.00 | 0.00 | 0.00 | 55 | 1013.0 |
| 20260905112737 | 67 | 300 | 2.6 | 7.8 | 0.00 | 0.00 | 0.00 | 55 | 1012.7 |
| 20260905111234 | 66 | 276 | 2.6 | 7.0 | 0.00 | 0.00 | 0.00 | 58 | 1012.8 |
| 20260905105730 | 66 | 96 | 3.5 | 8.7 | 0.00 | 0.00 | 0.00 | 58 | 1012.5 |
| 20260905104227 | 65 | 80 | 7.0 | 8.7 | 0.00 | 0.00 | 0.00 | 58 | 1012.7 |
| 20260905102724 | 64 | 110 | 5.2 | 9.6 | 0.00 | 0.00 | 0.00 | 63 | 1012.5 |
| 20260905101220 | 64 | 60 | 0.9 | 7.8 | 0.00 | 0.00 | 0.00 | 66 | 1012.7 |
| 20260905095717 | 64 | 271 | 3.5 | 9.6 | 0.00 | 0.00 | 0.00 | 69 | 1012.5 |
| 20260905094214 | 64 | 294 | 3.5 | 5.2 | 0.00 | 0.00 | 0.00 | 73 | 1012.4 |
| 20260905092711 | 63 | 304 | 2.6 | 7.8 | 0.00 | 0.00 | 0.00 | 76 | 1012.3 |
| 20260905091207 | 63 | 357 | 2.6 | 10.4 | 0.00 | 0.00 | 0.00 | 76 | 1012.3 |
| 20260905085704 | 62 | 349 | 3.5 | 6.1 | 0.00 | 0.00 | 0.00 | 82 | 1012.3 |
| 20260905084201 | 61 | 112 | 0.9 | 0.9 | 0.00 | 0.00 | 0.00 | 85 | 1012.1 |
| 20260904204527 | 63 | 281 | 1.7 | 3.5 | 0.00 | 0.00 | 0.00 | 100 | 1005.5 |
| 20260904203023 | 63 | 274 | 0.9 | 2.6 | 0.00 | 0.00 | 0.28 | 100 | 1005.6 |
| 20260904201520 | 63 | 84 | 4.3 | 6.1 | 0.00 | 0.00 | 0.28 | 100 | 1006.0 |
| 20260904200017 | 64 | 267 | 1.7 | 9.6 | 0.00 | 0.00 | 0.28 | 100 | 1005.8 |